Satellite: OKEAN-4 Catalog number: 23317 Epoch time: 14072.15406885 Element set: 476 Inclination: 082.5412 deg RA of node: 157.9495 deg Eccentricity: 0.0021820 Arg of perigee: 060.4173 deg Mean anomaly: 350.5412 deg Mean motion: 14.85233811 rev/day Decay rate: 2.375e-05 rev/day^2 Epoch rev: 4885 Checksum: 291
Satellite: NOAA-14 Catalog number: 23455 Epoch time: 14072.41676247 Element set: 682 Inclination: 098.7809 deg RA of node: 157.5414 deg Eccentricity: 0.0008502 Arg of perigee: 315.4771 deg Mean anomaly: 182.4387 deg Mean motion: 14.13956348 rev/day Decay rate: 1.4e-07 rev/day^2 Epoch rev: 99041 Checksum: 318
Satellite: NOAA-15 Catalog number: 25338 Epoch time: 14072.45642429 Element set: 111 Inclination: 098.7484 deg RA of node: 066.5282 deg Eccentricity: 0.0011633 Arg of perigee: 069.9747 deg Mean anomaly: 082.2356 deg Mean motion: 14.25366354 rev/day Decay rate: 3.31e-06 rev/day^2 Epoch rev: 82320 Checksum: 302
Satellite: RESURS Catalog number: 25394 Epoch time: 14072.48807418 Element set: 608 Inclination: 098.4022 deg RA of node: 040.9460 deg Eccentricity: 0.0001981 Arg of perigee: 145.1922 deg Mean anomaly: 321.9443 deg Mean motion: 14.24377072 rev/day Decay rate: 1.10e-06 rev/day^2 Epoch rev: 81469 Checksum: 284
Satellite: FENGYUN1 Catalog number: 25730 Epoch time: 14072.86965465 Element set: 101 Inclination: 098.9057 deg RA of node: 034.6041 deg Eccentricity: 0.0028812 Arg of perigee: 019.5014 deg Mean anomaly: 033.4085 deg Mean motion: 14.11572946 rev/day Decay rate: 3.290e-05 rev/day^2 Epoch rev: 76407 Checksum: 289
Satellite: OKEAN-0 Catalog number: 25860 Epoch time: 14071.84984515 Element set: 197 Inclination: 098.0318 deg RA of node: 036.3622 deg Eccentricity: 0.0001651 Arg of perigee: 082.2210 deg Mean anomaly: 300.1968 deg Mean motion: 14.75058365 rev/day Decay rate: 1.446e-05 rev/day^2 Epoch rev: 78795 Checksum: 305
Satellite: NOAA-16 Catalog number: 26536 Epoch time: 14072.44190882 Element set: 598 Inclination: 099.0011 deg RA of node: 132.3393 deg Eccentricity: 0.0011572 Arg of perigee: 097.8548 deg Mean anomaly: 022.9074 deg Mean motion: 14.13002627 rev/day Decay rate: 3.42e-06 rev/day^2 Epoch rev: 69459 Checksum: 304
Satellite: NOAA-17 Catalog number: 27453 Epoch time: 14072.49350667 Element set: 505 Inclination: 098.3130 deg RA of node: 077.2535 deg Eccentricity: 0.0012954 Arg of perigee: 096.6964 deg Mean anomaly: 016.6244 deg Mean motion: 14.24704759 rev/day Decay rate: 2.73e-06 rev/day^2 Epoch rev: 60906 Checksum: 316
Satellite: NOAA-18 Catalog number: 28654 Epoch time: 14072.44896503 Element set: 986 Inclination: 099.1394 deg RA of node: 050.0768 deg Eccentricity: 0.0014660 Arg of perigee: 169.0141 deg Mean anomaly: 300.4661 deg Mean motion: 14.11967564 rev/day Decay rate: 2.15e-06 rev/day^2 Epoch rev: 45405 Checksum: 310
Satellite: NOAA-19 Catalog number: 33591 Epoch time: 14072.45673993 Element set: 157 Inclination: 098.9367 deg RA of node: 017.8276 deg Eccentricity: 0.0014572 Arg of perigee: 033.9188 deg Mean anomaly: 073.0398 deg Mean motion: 14.11662329 rev/day Decay rate: 3.59e-06 rev/day^2 Epoch rev: 26248 Checksum: 342
/EX SB KEPS @ AMSAT $ORB14072.M Orbital Elements 14072.MISC
HR AMSAT ORBITAL ELEMENTS FOR MANNED AND MISCELLANEOUS SATELLITES FROM WA5QGD FORT WORTH,TX March 13, 2014 BID: ORB14072.M TO ALL RADIO AMATEURS BT
Satellite: HUBBLE Catalog number: 20580 Epoch time: 14071.13218308 Element set: 456 Inclination: 028.4702 deg RA of node: 314.9466 deg Eccentricity: 0.0003150 Arg of perigee: 334.8851 deg Mean anomaly: 156.4768 deg Mean motion: 15.04888685 rev/day Decay rate: 3.832e-05 rev/day^2 Epoch rev: 11008 Checksum: 290
Satellite: ISS Catalog number: 25544 Epoch time: 14072.90401363 Element set: 861 Inclination: 051.6471 deg RA of node: 211.8588 deg Eccentricity: 0.0004571 Arg of perigee: 300.6729 deg Mean anomaly: 148.1762 deg Mean motion: 15.50846537 rev/day Decay rate: 6.3891e-04 rev/day^2 Epoch rev: 87654 Checksum: 313
Satellite: CO-58 Catalog number: 28895 Epoch time: 14072.79121650 Element set: 716 Inclination: 097.8432 deg RA of node: 279.5778 deg Eccentricity: 0.0016342 Arg of perigee: 314.4182 deg Mean anomaly: 045.5681 deg Mean motion: 14.61659254 rev/day Decay rate: 1.482e-05 rev/day^2 Epoch rev: 44631 Checksum: 335
Satellite: FALCON Catalog number: 30776 Epoch time: 14072.20410025 Element set: 822 Inclination: 035.4307 deg RA of node: 347.3309 deg Eccentricity: 0.0001478 Arg of perigee: 247.4448 deg Mean anomaly: 238.9939 deg Mean motion: 15.14456421 rev/day Decay rate: 1.3966e-04 rev/day^2 Epoch rev: 38616 Checksum: 299
Satellite: MAST Catalog number: 31126 Epoch time: 14072.44203508 Element set: 995 Inclination: 097.9066 deg RA of node: 058.3824 deg Eccentricity: 0.0090947 Arg of perigee: 293.2055 deg Mean anomaly: 239.0815 deg Mean motion: 14.55085275 rev/day Decay rate: 1.468e-05 rev/day^2 Epoch rev: 36646 Checksum: 320
Satellite: CAPE1 Catalog number: 31130 Epoch time: 14071.82126010 Element set: 0 Inclination: 097.9257 deg RA of node: 054.3356 deg Eccentricity: 0.0098196 Arg of perigee: 312.9339 deg Mean anomaly: 046.3651 deg Mean motion: 14.54171790 rev/day Decay rate: 2.357e-05 rev/day^2 Epoch rev: 36580 Checksum: 281
Satellite: COMPASS Catalog number: 32787 Epoch time: 14072.11415592 Element set: 874 Inclination: 097.7145 deg RA of node: 128.3772 deg Eccentricity: 0.0015315 Arg of perigee: 135.9063 deg Mean anomaly: 224.3378 deg Mean motion: 14.87148758 rev/day Decay rate: 4.709e-05 rev/day^2 Epoch rev: 31790 Checksum: 323
Satellite: AAUSAT2 Catalog number: 32788 Epoch time: 14072.76744918 Element set: 862 Inclination: 097.7153 deg RA of node: 129.8885 deg Eccentricity: 0.0015002 Arg of perigee: 132.5817 deg Mean anomaly: 227.6668 deg Mean motion: 14.87788928 rev/day Decay rate: 5.741e-05 rev/day^2 Epoch rev: 31805 Checksum: 355
Satellite: DO-64 Catalog number: 32789 Epoch time: 14072.43969932 Element set: 899 Inclination: 097.7321 deg RA of node: 135.2016 deg Eccentricity: 0.0013778 Arg of perigee: 124.5154 deg Mean anomaly: 357.4043 deg Mean motion: 14.91825085 rev/day Decay rate: 1.1137e-04 rev/day^2 Epoch rev: 31821 Checksum: 324
Satellite: CO-66 Catalog number: 32791 Epoch time: 14072.39215466 Element set: 859 Inclination: 097.7138 deg RA of node: 127.6019 deg Eccentricity: 0.0015861 Arg of perigee: 137.7241 deg Mean anomaly: 222.5201 deg Mean motion: 14.85967764 rev/day Decay rate: 4.264e-05 rev/day^2 Epoch rev: 31782 Checksum: 330
Satellite: RS-30 Catalog number: 32953 Epoch time: 14072.69288196 Element set: 733 Inclination: 082.4980 deg RA of node: 260.5878 deg Eccentricity: 0.0018801 Arg of perigee: 006.9383 deg Mean anomaly: 353.1959 deg Mean motion: 12.43043605 rev/day Decay rate: 1.0e-07 rev/day^2 Epoch rev: 26339 Checksum: 313
Satellite: METEOR-M Catalog number: 35865 Epoch time: 14072.66652050 Element set: 342 Inclination: 098.5631 deg RA of node: 122.9207 deg Eccentricity: 0.0002981 Arg of perigee: 028.4477 deg Mean anomaly: 331.6865 deg Mean motion: 14.21912273 rev/day Decay rate: 2.1e-07 rev/day^2 Epoch rev: 23276 Checksum: 285
Satellite: RS-38 Catalog number: 35869 Epoch time: 14072.74753001 Element set: 281 Inclination: 098.5552 deg RA of node: 122.8320 deg Eccentricity: 0.0004655 Arg of perigee: 027.4082 deg Mean anomaly: 106.5564 deg Mean motion: 14.22188519 rev/day Decay rate: 1.01e-06 rev/day^2 Epoch rev: 23280 Checksum: 284
Satellite: JUGNU Catalog number: 37839 Epoch time: 14072.45312463 Element set: 579 Inclination: 019.9612 deg RA of node: 115.1347 deg Eccentricity: 0.0019201 Arg of perigee: 010.1167 deg Mean anomaly: 135.9710 deg Mean motion: 14.12266615 rev/day Decay rate: 5.94e-06 rev/day^2 Epoch rev: 12500 Checksum: 267
Satellite: SRMSAT Catalog number: 37841 Epoch time: 14072.45213296 Element set: 581 Inclination: 019.9715 deg RA of node: 132.5441 deg Eccentricity: 0.0011877 Arg of perigee: 314.1106 deg Mean anomaly: 162.7962 deg Mean motion: 14.10315815 rev/day Decay rate: 5.52e-06 rev/day^2 Epoch rev: 12482 Checksum: 275
Satellite: RAX-2 Catalog number: 37853 Epoch time: 14072.84608174 Element set: 748 Inclination: 101.7151 deg RA of node: 057.1352 deg Eccentricity: 0.0221450 Arg of perigee: 332.4802 deg Mean anomaly: 087.5963 deg Mean motion: 14.87806259 rev/day Decay rate: 1.6330e-04 rev/day^2 Epoch rev: 12847 Checksum: 305
Satellite: AUBIESAT Catalog number: 37854 Epoch time: 14072.17411059 Element set: 730 Inclination: 101.7191 deg RA of node: 057.6800 deg Eccentricity: 0.0219749 Arg of perigee: 332.1121 deg Mean anomaly: 087.6325 deg Mean motion: 14.88958633 rev/day Decay rate: 2.0880e-04 rev/day^2 Epoch rev: 12841 Checksum: 297
Satellite: HRBE Catalog number: 37855 Epoch time: 14071.59327160 Element set: 740 Inclination: 101.7190 deg RA of node: 056.3269 deg Eccentricity: 0.0221837 Arg of perigee: 334.7771 deg Mean anomaly: 139.1092 deg Mean motion: 14.88335487 rev/day Decay rate: 1.7221e-04 rev/day^2 Epoch rev: 12830 Checksum: 300
Satellite: RS-39 Catalog number: 38051 Epoch time: 14072.79213892 Element set: 354 Inclination: 051.6316 deg RA of node: 338.7299 deg Eccentricity: 0.0010271 Arg of perigee: 168.1610 deg Mean anomaly: 295.9877 deg Mean motion: 15.47591450 rev/day Decay rate: 6.5784e-04 rev/day^2 Epoch rev: 11927 Checksum: 339
Satellite: E-STAR Catalog number: 38079 Epoch time: 14072.44139146 Element set: 777 Inclination: 069.4574 deg RA of node: 240.1394 deg Eccentricity: 0.0455572 Arg of perigee: 132.3997 deg Mean anomaly: 323.8804 deg Mean motion: 14.85824415 rev/day Decay rate: 1.63229e-03 rev/day^2 Epoch rev: 10912 Checksum: 327
